GW0143 Weather Reports


time (UTC)temp
C
wind
direction
speed
KPH
gust
KPH
rain 1hr
cm
rain 24hr
cm
rain mn
cm
humidity
%
barometer
mb
20260509030518 10 188 6.4 9.7 0.00 0.00 0.00 55 1017.9
20260509025518 11 185 6.4 8.0 0.00 0.00 0.00 55 1017.8
20260509024518 11 203 6.4 11.3 0.00 0.00 0.00 53 1017.7
20260509023519 11 211 11.3 16.1 0.00 0.00 0.00 49 1017.4
20260509022524 11 197 11.3 16.1 0.00 0.00 0.00 53 1017.2
20260509021557 11 196 12.9 19.3 0.00 0.00 0.00 51 1017.0
20260509020520 12 197 11.3 16.1 0.00 0.00 0.00 52 1016.9
20260509015519 12 211 12.9 17.7 0.00 0.00 0.00 47 1016.7
20260509014519 12 185 9.7 12.9 0.00 0.00 0.00 51 1016.6
20260509013518 12 201 12.9 17.7 0.00 0.00 0.00 50 1016.5
20260509012518 13 207 11.3 16.1 0.00 0.00 0.00 48 1016.4
20260509011517 14 178 17.7 24.1 0.00 0.00 0.00 43 1016.2
20260509010517 15 179 17.7 24.1 0.00 0.00 0.00 41 1016.1
20260509005519 15 172 19.3 29.0 0.00 0.00 0.00 41 1016.0
20260509004518 15 171 20.9 30.6 0.00 0.00 0.00 40 1016.0
20260509003517 16 174 22.5 30.6 0.00 0.00 0.00 40 1015.9
20260509002518 16 178 20.9 29.0 0.00 0.00 0.00 39 1015.9
20260509001518 15 183 17.7 25.7 0.00 0.00 0.00 42 1015.8
20260509000518 15 182 17.7 25.7 0.00 0.00 0.00 41 1015.8
20260508235519 15 181 19.3 27.4 0.00 0.00 0.00 40 1015.7
20260508234559 16 184 17.7 24.1 0.00 0.00 0.00 40 1015.7
20260508233519 16 190 20.9 27.4 0.00 0.00 0.00 39 1015.7
20260508232519 16 185 17.7 29.0 0.00 0.00 0.00 36 1015.6
20260508231557 16 192 19.3 30.6 0.00 0.00 0.00 37 1015.6
20260508230516 16 199 14.5 20.9 0.00 0.00 0.00 36 1015.5
20260508225519 18 195 16.1 25.7 0.00 0.00 0.00 34 1015.4
20260508224521 19 253 1.6 8.0 0.00 0.00 0.00 23 1015.4
20260508223601 17 16 4.8 6.4 0.00 0.00 0.00 23 1015.4
20260508222521 17 7 6.4 11.3 0.00 0.00 0.00 24 1015.5
20260508221518 17 0 8.0 14.5 0.00 0.00 0.00 24 1015.6
20260508220517 18 72 6.4 14.5 0.00 0.00 0.00 25 1015.6
20260508215538 17 35 6.4 14.5 0.00 0.00 0.00 24 1015.8
20260508214518 17 33 4.8 12.9 0.00 0.00 0.00 25 1015.9
20260508213518 18 352 8.0 16.1 0.00 0.00 0.00 24 1016.0
20260508212518 17 8 4.8 9.7 0.00 0.00 0.00 24 1016.1
20260508211519 18 120 4.8 11.3 0.00 0.00 0.00 22 1016.2
20260508210559 18 348 9.7 16.1 0.00 0.00 0.00 24 1016.1
20260508205519 18 358 9.7 20.9 0.00 0.00 0.00 25 1016.3
20260508204519 17 325 8.0 16.1 0.00 0.00 0.00 26 1016.4
20260508203519 16 319 6.4 11.3 0.00 0.00 0.00 27 1016.5
20260508202517 17 297 4.8 11.3 0.00 0.00 0.00 27 1016.5
20260508201516 17 319 11.3 17.7 0.00 0.00 0.00 28 1016.6
20260508200539 16 270 9.7 19.3 0.00 0.00 0.00 29 1016.7
20260508195520 17 85 8.0 17.7 0.00 0.00 0.00 28 1016.8
20260508194520 17 52 4.8 9.7 0.00 0.00 0.00 29 1017.0
20260508193520 16 192 8.0 12.9 0.00 0.00 0.00 31 1017.0
20260508192520 15 167 6.4 12.9 0.00 0.00 0.00 30 1017.1
20260508191520 15 226 4.8 9.7 0.00 0.00 0.00 31 1017.2
20260508190541 16 302 4.8 12.9 0.00 0.00 0.00 29 1017.3
20260508185541 15 323 6.4 16.1 0.00 0.00 0.00 30 1017.4
20260508184601 15 10 8.0 12.9 0.00 0.00 0.00 30 1017.6
20260508183521 15 239 8.0 14.5 0.00 0.00 0.00 32 1017.7
20260508182521 15 331 8.0 12.9 0.00 0.00 0.00 30 1017.8
20260508181521 15 306 3.2 8.0 0.00 0.00 0.00 30 1017.8
20260508180522 15 323 8.0 12.9 0.00 0.00 0.00 32 1017.9
20260508175519 15 284 9.7 17.7 0.00 0.00 0.00 32 1018.0
20260508174519 14 11 11.3 17.7 0.00 0.00 0.00 32 1018.1
20260508173519 14 36 11.3 20.9 0.00 0.00 0.00 32 1018.2
20260508172542 13 53 9.7 16.1 0.00 0.00 0.00 31 1018.3
20260508171520 13 19 11.3 22.5 0.00 0.00 0.00 32 1018.3
20260508170600 13 25 12.9 22.5 0.00 0.00 0.00 32 1018.3
20260508165517 13 40 12.9 20.9 0.00 0.00 0.00 34 1018.4
20260508164537 13 6 11.3 19.3 0.00 0.00 0.00 32 1018.4
20260508163517 13 31 12.9 22.5 0.00 0.00 0.00 33 1018.4
20260508162540 13 7 11.3 19.3 0.00 0.00 0.00 32 1018.4
20260508161517 13 29 14.5 20.9 0.00 0.00 0.00 33 1018.4
20260508160518 13 16 9.7 16.1 0.00 0.00 0.00 35 1018.5
20260508155558 12 30 12.9 20.9 0.00 0.00 0.00 34 1018.5
20260508154538 12 29 12.9 20.9 0.00 0.00 0.00 35 1018.5
20260508153518 12 29 8.0 19.3 0.00 0.00 0.00 33 1018.5
20260508152538 12 43 12.9 22.5 0.00 0.00 0.00 35 1018.5
20260508151519 12 33 9.7 19.3 0.00 0.00 0.00 35 1018.5
20260508150519 12 37 9.7 14.5 0.00 0.00 0.00 36 1018.6
20260508145519 11 12 8.0 12.9 0.00 0.00 0.00 38 1018.6
20260508144519 11 6 4.8 9.7 0.00 0.00 0.00 37 1018.6
20260508143519 11 3 3.2 8.0 0.00 0.00 0.00 38 1018.7
20260508142516 11 66 3.2 6.4 0.00 0.00 0.00 38 1018.7
20260508141516 11 33 3.2 4.8 0.00 0.00 0.00 39 1018.7
20260508140530 10 86 3.2 8.0 0.00 0.00 0.00 41 1018.7
20260508135520 9 67 4.8 9.7 0.00 0.00 0.00 43 1018.7
20260508134541 8 74 6.4 9.7 0.00 0.00 0.00 48 1018.6
20260508133540 8 80 6.4 11.3 0.00 0.00 0.00 54 1018.6
20260508132541 7 83 8.0 9.7 0.00 0.00 0.00 59 1018.6
20260508131518 6 177 1.6 4.8 0.00 0.00 0.00 61 1018.6
20260508130518 5 179 1.6 4.8 0.00 0.00 0.00 62 1018.6
20260508125518 5 224 3.2 4.8 0.00 0.00 0.00 64 1018.6
20260508124521 4 93 4.8 8.0 0.00 0.00 0.00 64 1018.4
20260508123522 2 101 6.4 9.7 0.00 0.00 0.00 69 1018.4
20260508122602 1 98 4.8 8.0 0.00 0.00 0.00 74 1018.4
20260508121522 0 101 4.8 9.7 0.00 0.00 0.00 78 1018.2
20260508120519 0 178 3.2 6.4 0.00 0.00 0.00 79 1018.1
20260508115519 0 187 4.8 6.4 0.00 0.00 0.00 78 1018.1
20260508114519 0 204 3.2 6.4 0.00 0.00 0.00 76 1018.1
20260508113520 0 183 3.2 4.8 0.00 0.00 0.00 77 1018.0
20260508112520 0 158 3.2 6.4 0.00 0.00 0.00 79 1018.1
20260508111520 1 151 3.2 6.4 0.00 0.00 0.00 76 1018.1
20260508110517 1 135 6.4 8.0 0.00 0.00 0.00 73 1018.0
20260508105600 1 111 4.8 6.4 0.00 0.00 0.00 75 1018.1
20260508104521 1 111 4.8 8.0 0.00 0.00 0.00 72 1018.0
20260508103523 2 88 4.8 8.0 0.00 0.00 0.00 71 1018.0
20260508102521 1 99 3.2 6.4 0.00 0.00 0.00 71 1017.9
20260508101519 0 165 4.8 9.7 0.00 0.00 0.00 79 1017.9
20260508100521 1 155 6.4 8.0 0.00 0.00 0.00 77 1017.8
20260508095521 2 143 4.8 6.4 0.00 0.00 0.00 74 1017.8
20260508094519 2 148 6.4 9.7 0.00 0.00 0.00 70 1017.9
20260508093543 3 118 1.6 3.2 0.00 0.00 0.00 68 1017.8
20260508092522 3 121 4.8 6.4 0.00 0.00 0.00 64 1017.8
20260508091522 3 131 3.2 4.8 0.00 0.00 0.00 67 1017.9
20260508090520 4 246 3.2 9.7 0.00 0.00 0.00 64 1017.8
20260508085522 5 94 3.2 6.4 0.00 0.00 0.00 63 1017.9
20260508084522 5 112 3.2 4.8 0.00 0.00 0.00 60 1017.9
20260508083520 5 62 8.0 9.7 0.00 0.00 0.00 60 1018.0
20260508082520 5 83 6.4 9.7 0.00 0.00 0.00 64 1018.0
20260508081523 4 97 3.2 6.4 0.00 0.00 0.00 65 1018.2
20260508080543 3 101 1.6 4.8 0.00 0.00 0.00 70 1018.3
20260508075524 2 157 6.4 8.0 0.00 0.00 0.00 74 1018.3
20260508074523 3 167 1.6 4.8 0.00 0.00 0.00 73 1018.3
20260508073524 2 144 3.2 4.8 0.00 0.00 0.00 77 1018.3
20260508072524 3 173 4.8 6.4 0.00 0.00 0.00 76 1018.2
20260508071521 3 175 6.4 9.7 0.00 0.00 0.00 75 1018.4
20260508070525 3 149 3.2 4.8 0.00 0.00 0.00 75 1018.5
20260508065544 3 148 6.4 8.0 0.00 0.00 0.00 76 1018.5
20260508064524 4 110 3.2 4.8 0.00 0.00 0.00 70 1018.5
20260508063525 5 126 3.2 4.8 0.00 0.00 0.00 66 1018.4
20260508062525 5 134 4.8 6.4 0.00 0.00 0.00 68 1018.4
20260508061525 5 168 6.4 8.0 0.00 0.00 0.00 69 1018.3
20260508060525 5 149 4.8 8.0 0.00 0.00 0.00 66 1018.2
20260508055546 4 141 6.4 8.0 0.00 0.00 0.00 70 1018.4
20260508054526 3 167 4.8 8.0 0.00 0.00 0.00 74 1018.3
20260508053517 3 174 6.4 9.7 0.00 0.00 0.00 76 1018.3
20260508052527 5 223 1.6 6.4 0.00 0.00 0.00 70 1018.4
20260508051546 5 155 1.6 4.8 0.00 0.00 0.00 63 1018.4
20260508050527 5 78 0.0 1.6 0.00 0.00 0.00 68 1018.6
20260508045527 6 126 3.2 6.4 0.00 0.00 0.00 58 1018.6
20260508044527 5 109 3.2 6.4 0.00 0.00 0.00 61 1018.6
20260508043538 5 133 4.8 8.0 0.00 0.00 0.00 66 1018.7
20260508042527 6 184 1.6 4.8 0.00 0.00 0.00 62 1018.9
20260508041518 5 158 3.2 8.0 0.00 0.00 0.00 63 1018.8
20260508040518 5 87 3.2 8.0 0.00 0.00 0.00 70 1018.6
20260508035519 6 84 6.4 9.7 0.00 0.00 0.00 69 1018.6
20260508034528 6 138 4.8 4.8 0.00 0.00 0.00 65 1018.6
20260508033519 6 165 8.0 11.3 0.00 0.00 0.00 65 1018.5
20260508032519 6 148 8.0 11.3 0.00 0.00 0.00 67 1018.5
20260508031520 5 138 8.0 11.3 0.00 0.00 0.00 67 1018.4